OBJECT AD, 62404

Orbit data source: Space-Track

You're viewing an Uncataloged Satellite

Recently launched and/or uncataloged satellites may have evolving metadata. Metadata may include but not limited to: Owner, Maufacturer, Bus, Motor, and Mission.

OBJECT AD, 62404 is a satellite in LEO that was launched on Sat, 21 Dec 2024 UTC via an FALCON 9 launch vehicle from the Air Force Western Test Range (AFWTR). Unknown objects in Earth's orbit typically refer to objects detected orbiting the Earth but have not yet been identified or cataloged. These objects could be anything from previously untracked satellites, spent rocket stages, debris from satellite collisions, or even natural meteoroids temporarily captured by Earth's gravity.

Loading next visibility...
Identifier
62404, 2024-247AD
Orbit
LEO
Country
Flag of TBDTBD
Related business
None
Manufacturer
Unknown
Mission
Operational Commercial Communications
Bus & Motor
Unknown
Mass
Unknown
Launch date (UTC)
2024-12-21 (1 year ago)
Launch vehicle
FALCON 9
Launch site
Air Force Western Test Range (AFWTR)
Object type
Unknown
Shape & HBR
Box, 0.0 m
Radar Cross Section
0.004 m², Small (<0.1 m²)

Expand to show TLE details & history
Last TLE update: 1 day ago

TLE from 1 day ago
0 OBJECT AD
1 62404U 24247AD  26035.92261827  .00042832  00000-0  10061-2 0  9997
2 62404  44.9963 274.1058 0009154 181.7344 178.3514 15.41348920 62988
Epoch: 2026-02-04T22:08Z
TLE epoch observation values (Epoch: 2026-02-04T22:08:34.218Z)
Latitude
-0.00001°
Longitude
166.88097°
Altitude
448.365 km
Speed
7.641 km/s
True Right ascension
18h 16m 25s
True Declination
0° 00' 00"
Sunlit
Object was in daylight at epoch
Visualization orbit readout
Latitude
Unknown
Longitude
Unknown
Altitude
Unknown
Speed
Unknown
Apparent Right ascension
Unknown
Apparent Declination
Unknown
Sunlit
N/A
Visualization observer readout
Local Sidereal Time
08:27:15
Azimuth
Unknown
Elevation
Unknown
Doppler factor
Unknown
Orbital elements
Apogee altitude
449.991 km
Perigee altitude
437.502 km
Semi-major axis
6,821.884 km
Eccentricity
0.00092
Inclination
44.9963°
RAAN
274.1058°
Arg. of periapsis
181.7344°
True anomaly
178.35441°
Mean anomaly
178.3514°
Eccentric anomaly
178.35291°
Mean motion
3.852 °/min
Orbital period
93.46 mins
BSTAR
0.0010061
Loading maneuver chart data...
Computing Atmospheric mass density...
Loading historical data...
Loading historical data...
Loading historical data...
Loading historical data...
Loading historical data...
Loading historical data...
Loading historical data...

Documentation

Showing up to 5 results
|